• In Italy
  • List of Countries
  • For 7 days
  • Water Temperature
  • Satellite Maps
  • Weather Map
  • Weather Widgets
  • user-avatar
    Login

    Hourly Weather Nashavar

    Today, 14 December, Thursday

    Time Temperature Precipitation Wind Pressure Humidity
    00:00 +11°C° 0.1 mm 3 mps 735 mmHg 61%
    01:00 +10°C° 0.1 mm 3 mps 735 mmHg 62%
    02:00 +10°C° 0.1 mm 3 mps 735 mmHg 62%
    03:00 +10°C° 0 mm 3 mps 736 mmHg 63%
    04:00 +9°C° 0 mm 3 mps 736 mmHg 64%
    05:00 +9°C° 0 mm 2 mps 735 mmHg 67%
    06:00 +9°C° 0.1 mm 2 mps 735 mmHg 67%
    07:00 +9°C° 0.1 mm 2 mps 736 mmHg 66%
    08:00 +9°C° 0.1 mm 2 mps 736 mmHg 65%
    09:00 +12°C° 0 mm 2 mps 737 mmHg 58%
    10:00 +12°C° 0 mm 3 mps 737 mmHg 51%
    11:00 +14°C° 0 mm 3 mps 737 mmHg 45%
    12:00 +14°C° 0 mm 3 mps 737 mmHg 42%
    13:00 +16°C° 0 mm 3 mps 736 mmHg 40%
    14:00 +16°C° 0 mm 3 mps 736 mmHg 37%
    15:00 +16°C° 0 mm 3 mps 736 mmHg 39%
    16:00 +14°C° 0 mm 3 mps 736 mmHg 41%
    17:00 +13°C° 0 mm 3 mps 736 mmHg 42%
    18:00 +13°C° 0 mm 3 mps 736 mmHg 43%
    19:00 +12°C° 0 mm 3 mps 737 mmHg 44%
    20:00 +12°C° 0 mm 3 mps 737 mmHg 44%
    21:00 +11°C° 0 mm 3 mps 737 mmHg 44%
    22:00 +11°C° 0 mm 3 mps 737 mmHg 44%
    23:00 +10°C° 0 mm 3 mps 737 mmHg 44%

    Tomorrow, 15 December, Friday

    Time Temperature Precipitation Wind Pressure Humidity
    00:00 +10°C° 0 mm 3 mps 737 mmHg 43%
    01:00 +10°C° 0 mm 3 mps 737 mmHg 43%
    02:00 +9°C° 0 mm 3 mps 737 mmHg 42%
    03:00 +9°C° 0 mm 3 mps 738 mmHg 41%
    04:00 +9°C° 0 mm 3 mps 738 mmHg 40%
    05:00 +8°C° 0 mm 3 mps 738 mmHg 39%
    06:00 +8°C° 0 mm 3 mps 738 mmHg 38%
    07:00 +8°C° 0 mm 3 mps 739 mmHg 38%
    08:00 +7°C° 0 mm 4 mps 739 mmHg 37%
    09:00 +10°C° 0 mm 4 mps 739 mmHg 33%
    10:00 +12°C° 0 mm 4 mps 739 mmHg 29%
    11:00 +13°C° 0 mm 4 mps 739 mmHg 26%
    12:00 +14°C° 0 mm 4 mps 739 mmHg 24%
    13:00 +15°C° 0 mm 4 mps 738 mmHg 23%
    14:00 +15°C° 0 mm 4 mps 738 mmHg 21%
    15:00 +14°C° 0 mm 4 mps 738 mmHg 23%
    16:00 +14°C° 0 mm 4 mps 738 mmHg 25%
    17:00 +13°C° 0 mm 4 mps 738 mmHg 27%
    18:00 +12°C° 0 mm 4 mps 738 mmHg 28%
    19:00 +11°C° 0 mm 4 mps 739 mmHg 28%
    20:00 +11°C° 0 mm 4 mps 739 mmHg 29%
    21:00 +10°C° 0 mm 4 mps 739 mmHg 29%
    22:00 +10°C° 0 mm 4 mps 739 mmHg 29%
    23:00 +10°C° 0 mm 4 mps 739 mmHg 28%

    Day after tomorrow, 16 December, Saturday

    Time Temperature Precipitation Wind Pressure Humidity
    00:00 +8°C° 0 mm 4 mps 739 mmHg 28%
    01:00 +8°C° 0 mm 4 mps 739 mmHg 27%
    02:00 +8°C° 0 mm 4 mps 738 mmHg 26%
    03:00 +8°C° 0 mm 4 mps 738 mmHg 26%
    04:00 +9°C° 0 mm 3 mps 738 mmHg 25%
    05:00 +8°C° 0 mm 3 mps 738 mmHg 24%
    06:00 +9°C° 0 mm 3 mps 738 mmHg 24%
    07:00 +9°C° 0 mm 3 mps 738 mmHg 23%
    08:00 +9°C° 0 mm 3 mps 739 mmHg 23%
    09:00 +11°C° 0 mm 3 mps 738 mmHg 20%
    10:00 +13°C° 0 mm 3 mps 738 mmHg 17%
    11:00 +16°C° 0 mm 3 mps 738 mmHg 14%
    12:00 +17°C° 0 mm 3 mps 738 mmHg 14%
    13:00 +18°C° 0 mm 4 mps 737 mmHg 13%
    14:00 +19°C° 0 mm 4 mps 737 mmHg 12%
    15:00 +18°C° 0 mm 3 mps 737 mmHg 14%
    16:00 +17°C° 0 mm 3 mps 737 mmHg 16%
    17:00 +14°C° 0 mm 3 mps 737 mmHg 17%
    18:00 +14°C° 0 mm 3 mps 737 mmHg 18%
    19:00 +13°C° 0 mm 3 mps 738 mmHg 18%
    20:00 +13°C° 0 mm 3 mps 738 mmHg 18%
    21:00 +12°C° 0 mm 3 mps 739 mmHg 19%
    22:00 +12°C° 0 mm 3 mps 739 mmHg 19%
    23:00 +12°C° 0 mm 3 mps 739 mmHg 19%

    17 December, Sunday

    Time Temperature Precipitation Wind Pressure Humidity
    00:00 +11°C° 0 mm 3 mps 739 mmHg 20%
    01:00 +11°C° 0 mm 3 mps 738 mmHg 20%
    02:00 +11°C° 0 mm 3 mps 738 mmHg 20%
    03:00 +11°C° 0 mm 3 mps 738 mmHg 21%
    04:00 +11°C° 0 mm 3 mps 738 mmHg 21%
    05:00 +11°C° 0 mm 3 mps 738 mmHg 21%
    06:00 +11°C° 0 mm 3 mps 738 mmHg 21%
    07:00 +11°C° 0 mm 3 mps 738 mmHg 22%
    08:00 +11°C° 0 mm 3 mps 739 mmHg 22%
    09:00 +13°C° 0 mm 3 mps 739 mmHg 20%
    10:00 +16°C° 0 mm 3 mps 739 mmHg 17%
    11:00 +18°C° 0 mm 3 mps 739 mmHg 15%
    12:00 +19°C° 0 mm 3 mps 738 mmHg 14%
    13:00 +20°C° 0 mm 3 mps 738 mmHg 13%
    14:00 +21°C° 0 mm 3 mps 737 mmHg 13%
    15:00 +20°C° 0 mm 3 mps 737 mmHg 14%
    16:00 +19°C° 0 mm 3 mps 737 mmHg 16%
    17:00 +18°C° 0 mm 3 mps 737 mmHg 18%
    18:00 +17°C° 0 mm 3 mps 737 mmHg 18%
    19:00 +16°C° 0 mm 3 mps 738 mmHg 18%
    20:00 +16°C° 0 mm 3 mps 738 mmHg 19%
    21:00 +16°C° 0 mm 3 mps 738 mmHg 19%
    22:00 +14°C° 0 mm 3 mps 739 mmHg 20%
    23:00 +14°C° 0 mm 3 mps 739 mmHg 20%

    18 December, Monday

    Time Temperature Precipitation Wind Pressure Humidity
    00:00 +14°C° 0 mm 3 mps 738 mmHg 20%
    01:00 +14°C° 0 mm 3 mps 738 mmHg 20%
    02:00 +14°C° 0 mm 3 mps 738 mmHg 21%
    03:00 +14°C° 0 mm 3 mps 738 mmHg 21%
    04:00 +13°C° 0 mm 3 mps 738 mmHg 21%
    05:00 +13°C° 0 mm 3 mps 737 mmHg 22%
    06:00 +13°C° 0 mm 3 mps 738 mmHg 22%
    07:00 +14°C° 0 mm 3 mps 738 mmHg 22%
    08:00 +14°C° 0 mm 3 mps 738 mmHg 23%
    09:00 +17°C° 0 mm 3 mps 738 mmHg 21%
    10:00 +19°C° 0 mm 3 mps 738 mmHg 19%
    11:00 +20°C° 0 mm 3 mps 738 mmHg 17%
    12:00 +21°C° 0 mm 3 mps 738 mmHg 16%
    13:00 +22°C° 0 mm 3 mps 737 mmHg 15%
    14:00 +24°C° 0 mm 3 mps 737 mmHg 14%
    15:00 +22°C° 0 mm 3 mps 737 mmHg 16%
    16:00 +21°C° 0 mm 3 mps 736 mmHg 18%
    17:00 +20°C° 0 mm 3 mps 736 mmHg 20%
    18:00 +19°C° 0 mm 3 mps 737 mmHg 20%
    19:00 +18°C° 0 mm 3 mps 737 mmHg 21%
    20:00 +18°C° 0 mm 3 mps 737 mmHg 21%
    21:00 +18°C° 0 mm 3 mps 737 mmHg 22%
    22:00 +17°C° 0 mm 3 mps 737 mmHg 22%
    23:00 +17°C° 0 mm 3 mps 737 mmHg 22%

    19 December, Tuesday

    Time Temperature Precipitation Wind Pressure Humidity
    00:00 +17°C° 0 mm 3 mps 737 mmHg 23%
    01:00 +17°C° 0 mm 3 mps 737 mmHg 23%
    02:00 +16°C° 0 mm 3 mps 736 mmHg 23%
    03:00 +16°C° 0 mm 3 mps 736 mmHg 23%
    04:00 +16°C° 0 mm 3 mps 736 mmHg 24%
    05:00 +16°C° 0 mm 3 mps 736 mmHg 24%
    06:00 +16°C° 0 mm 3 mps 736 mmHg 24%
    07:00 +16°C° 0 mm 3 mps 737 mmHg 24%
    08:00 +16°C° 0 mm 3 mps 737 mmHg 25%
    09:00 +17°C° 0 mm 3 mps 737 mmHg 22%
    10:00 +19°C° 0 mm 3 mps 737 mmHg 20%
    11:00 +21°C° 0 mm 3 mps 737 mmHg 17%
    12:00 +22°C° 0 mm 3 mps 737 mmHg 17%
    13:00 +23°C° 0 mm 4 mps 736 mmHg 16%
    14:00 +25°C° 0 mm 4 mps 736 mmHg 15%
    15:00 +22°C° 0 mm 3 mps 736 mmHg 17%
    16:00 +21°C° 0 mm 3 mps 735 mmHg 19%
    17:00 +20°C° 0 mm 3 mps 735 mmHg 21%
    18:00 +19°C° 0 mm 3 mps 736 mmHg 21%
    19:00 +18°C° 0 mm 3 mps 736 mmHg 22%
    20:00 +17°C° 0 mm 3 mps 736 mmHg 23%
    21:00 +17°C° 0 mm 3 mps 736 mmHg 23%
    22:00 +16°C° 0 mm 3 mps 736 mmHg 23%
    23:00 +16°C° 0 mm 3 mps 736 mmHg 24%
    Show more